Helicity
19 17 16 15 14 12 13 15 13 10 8 8 7 4 -1 -5 -7 -9 -8 -2 -1 3 6 10 18 39 79 98 107 148 157 145 145 145 130 146 148 132 135 141 161 119 85 103 78 85 86
23 22 22 22 21 17 12 10 7 6 6 -0 -6 -12 -15 -16 -15 -8 -2 8 16 41 52 49 45 81 128 120 145 114 157 166 140 151 160 158 139 131 165 165 155 187 113 83 99 75 93
32 34 31 27 24 20 17 16 7 3 4 4 8 10 14 21 24 16 5 7 14 20 21 49 85 127 172 108 163 150 157 153 156 146 183 152 177 179 178 175 185 194 130 92 81 82 115
35 36 36 32 28 23 19 18 18 15 18 17 16 16 15 15 7 3 18 19 -3 -5 22 90 120 146 162 178 169 184 168 193 163 154 171 169 175 206 216 254 242 186 186 134 127 107 137
45 42 39 37 35 33 29 21 18 17 21 25 25 25 25 30 35 29 49 33 1 46 104 142 144 154 121 143 134 121 119 152 145 150 167 182 206 243 221 239 205 223 190 139 150 91 172
51 47 44 43 42 33 30 29 27 19 16 17 21 20 20 34 38 52 51 15 46 88 122 82 131 101 112 155 151 141 141 143 189 208 259 261 272 248 253 264 231 142 152 186 166 149 92
53 51 44 46 38 42 46 45 38 40 50 45 38 25 12 23 52 51 12 -15 52 70 77 105 162 185 204 215 206 230 209 217 275 288 270 248 247 271 178 143 70 147 144 142 142 166 139
45 47 47 47 40 42 46 46 51 55 55 57 53 54 43 33 75 35 4 17 42 56 31 67 96 140 99 153 198 209 216 258 312 253 257 257 225 158 155 177 140 127 115 112 101 101 126
50 54 56 58 57 60 70 76 78 68 66 57 51 48 47 46 48 22 15 39 45 38 46 58 85 84 81 87 91 88 153 217 196 142 174 136 197 187 104 142 182 167 149 115 88 140 99
63 61 59 61 63 67 65 76 85 70 65 47 44 43 41 44 20 40 26 47 51 40 21 59 90 90 73 48 87 74 70 125 135 69 79 86 40 108 152 147 114 126 114 78 97 136 143
69 66 62 61 59 55 56 59 60 51 44 34 38 39 40 39 37 31 51 40 42 29 111 148 139 71 75 107 132 101 121 152 112 133 177 149 137 118 60 20 106 121 132 117 112 128 187
73 65 53 56 59 59 55 45 38 38 43 36 30 39 44 50 67 49 46 45 64 70 50 186 193 220 118 81 161 208 177 183 202 178 182 89 223 204 165 138 100 174 189 181 181 174 176
69 62 61 62 60 50 39 34 31 25 32 31 26 51 53 78 75 69 60 82 75 124 200 196 191 227 254 193 198 191 225 245 217 201 165 152 112 176 184 186 200 210 212 211 171 222 205
58 64 62 50 55 56 57 59 53 49 39 36 32 57 98 84 76 82 112 179 130 178 235 295 245 195 212 218 218 261 302 246 202 272 241 211 178 176 173 163 222 119 173 287 256 150 204
57 63 65 59 66 61 63 63 68 68 70 53 53 70 45 98 111 119 211 261 234 289 320 314 234 191 217 240 253 244 221 187 267 165 253 250 232 217 193 221 223 295 307 184 261 245 290
53 55 57 60 63 58 75 67 73 61 59 83 94 44 50 78 78 147 266 317 330 340 327 271 267 287 280 275 248 257 246 269 258 217 224 317 283 238 293 255 253 286 284 306 342 391 326
61 62 61 70 75 84 95 90 94 69 65 107 122 84 85 64 62 225 291 290 314 263 223 249 278 260 250 245 231 256 288 240 222 227 227 283 278 258 262 249 196 308 338 379 431 401 387
67 63 76 73 74 77 77 79 82 71 68 134 153 99 139 184 149 190 167 258 248 217 168 187 195 178 163 158 173 184 163 148 239 246 270 260 319 249 199 267 287 322 339 315 374 381 322
77 79 78 79 84 72 75 86 87 76 55 152 197 192 70 81 -18 39 48 62 103 65 87 134 182 183 187 189 262 144 166 240 209 183 206 175 262 269 236 194 220 254 227 268 304 285 251
70 70 74 65 52 50 66 67 69 39 21 114 228 277 191 160 79 -23 -11 43 28 30 34 47 68 65 93 112 97 168 152 137 54 71 59 124 131 162 190 200 299 244 165 149 173 259 275
65 57 46 29 34 36 26 11 -10 -8 53 32 148 196 140 176 107 49 40 93 79 32 51 2 35 40 42 59 138 142 71 81 30 91 90 136 135 95 78 164 148 93 145 138 146 109 107
43 19 5 12 3 4 1 -12 9 -12 36 28 85 140 137 229 172 92 82 194 110 30 50 24 23 -7 8 11 29 28 39 56 43 68 17 -33 93 157 171 113 142 161 145 133 76 53 89
11 14 7 1 -2 -3 -10 -6 -0 7 59 42 88 85 57 21 50 164 186 111 105 124 122 27 25 59 46 22 15 48 32 48 88 61 50 31 -42 5 51 29 35 103 71 75 165 254 262
32 16 2 -8 -21 -23 -6 4 12 21 62 73 88 101 88 97 60 1 48 144 149 100 138 51 74 94 144 73 52 46 76 36 98 62 56 68 52 49 64 10 48 127 183 145 259 243 217
-16 -31 -45 -45 -35 -21 -0 16 21 30 39 94 97 111 141 130 121 43 10 67 95 118 77 117 85 119 67 63 69 52 70 63 42 37 41 59 70 89 89 100 142 115 162 185 194 188 248
-39 -37 -25 -20 -18 -5 13 30 38 46 45 92 106 84 143 157 124 138 72 56 63 43 61 71 46 74 116 113 81 101 47 68 49 43 68 72 39 75 68 93 100 141 142 204 165 132 212
-21 -10 -7 -3 5 12 17 22 30 33 37 74 87 92 129 256 174 181 152 112 61 90 108 83 56 69 78 130 53 29 42 81 46 52 47 50 63 58 58 68 170 172 162 191 115 139 216
4 3 11 22 29 31 32 29 40 45 36 67 101 79 89 115 96 67 65 84 44 74 79 105 39 62 41 30 54 45 19 11 25 98 104 116 122 199 118 104 153 308 208 218 201 171 130
31 38 46 58 87 66 49 30 17 30 45 87 114 94 98 110 118 103 104 86 97 50 38 52 52 11 75 96 140 76 29 56 79 122 147 133 127 137 140 173 236 237 209 206 180 146 161
Wind_Speed
51 52 55 56 58 60 62 64 65 66 67 69 71 72 74 75 77 79 81 83 83 83 82 79 76 63 47 38 35 32 18 15 16 15 17 18 20 25 24 29 29 28 39 40 37 42 42
52 55 57 59 61 63 65 67 69 70 71 72 74 75 78 80 83 85 88 90 90 90 87 82 73 44 46 34 41 25 20 21 22 19 23 23 30 28 34 33 24 38 40 45 44 43 44
57 59 61 63 65 67 69 71 72 74 76 78 80 82 84 86 89 92 94 94 93 92 88 80 50 39 43 42 40 27 22 28 28 25 31 31 33 30 31 41 35 43 48 51 45 46 42
59 62 64 66 69 71 73 75 77 79 81 82 84 86 89 92 94 97 98 93 91 89 74 51 33 35 44 44 38 30 27 33 31 31 36 32 31 37 39 41 43 46 47 53 43 32 37
62 64 67 69 72 74 77 79 80 82 84 86 88 90 93 96 99 102 98 93 89 62 49 35 36 38 41 37 37 31 24 31 27 31 32 29 30 42 41 42 50 46 48 42 49 32 40
62 65 68 71 74 76 78 81 84 86 87 89 90 92 95 97 100 100 97 90 60 47 45 41 41 40 35 36 34 30 25 23 32 29 35 36 40 39 36 37 48 48 44 42 42 42 39
61 64 66 70 73 76 79 80 83 84 86 89 91 93 94 97 99 92 88 65 65 55 52 50 47 45 42 42 33 30 26 25 30 29 33 34 42 43 38 38 40 53 52 53 49 53 57
59 61 65 69 74 78 80 81 83 86 86 89 92 93 94 94 97 76 71 60 61 60 78 58 53 51 48 49 49 39 26 30 32 39 39 49 54 45 54 50 48 51 56 61 62 56 51
63 65 67 69 72 76 80 80 84 82 85 89 90 91 92 92 84 67 62 60 65 51 65 63 43 41 38 24 33 30 15 29 36 40 38 45 46 46 39 48 54 54 61 60 66 57 49
66 68 68 68 69 73 77 81 83 83 84 88 91 90 91 93 56 73 54 62 64 44 68 52 38 35 30 30 37 30 17 27 32 39 39 48 50 51 51 55 50 64 50 56 56 59 70
67 69 68 68 67 71 77 79 81 83 84 86 89 89 87 77 61 63 57 65 55 44 77 44 38 30 31 36 40 35 30 32 40 42 41 50 49 49 47 47 45 59 48 49 49 50 58
70 72 72 71 70 71 77 81 82 85 86 86 88 90 90 64 59 51 60 60 44 57 69 46 43 46 44 38 44 42 40 41 48 53 56 61 52 51 51 46 39 43 44 47 49 54 77
72 72 73 74 76 80 77 79 82 83 86 89 90 93 88 58 60 59 60 49 62 63 55 58 54 53 61 58 54 47 49 49 56 66 70 62 62 59 52 57 49 46 51 70 74 72 85
73 75 76 76 79 80 80 82 81 81 85 86 91 97 71 56 55 57 51 51 73 64 67 63 64 69 72 62 63 60 65 70 58 62 75 83 89 57 48 57 61 54 55 69 89 87 79
76 79 78 80 82 82 83 83 82 81 86 86 89 80 69 55 52 50 53 71 80 73 69 76 75 84 80 67 64 67 71 77 68 56 74 77 81 57 53 51 49 56 66 63 79 75 83
77 78 80 81 83 82 83 87 85 87 89 90 83 82 64 55 54 53 64 81 76 69 74 74 90 78 92 81 77 73 73 63 67 60 57 69 91 67 59 53 54 58 48 65 63 85 90
80 80 82 81 81 83 85 87 88 91 91 83 77 82 59 60 55 65 83 82 79 73 73 78 83 87 86 88 81 83 82 75 65 62 56 65 73 74 61 65 65 59 66 61 62 70 87
79 80 79 82 81 85 88 87 87 89 90 77 74 85 60 64 77 68 81 79 74 76 72 78 79 87 92 89 96 90 92 78 56 53 68 60 72 89 83 58 51 55 64 61 77 78 71
77 78 79 81 83 87 87 87 87 88 86 79 79 83 64 52 87 93 80 81 83 92 91 83 85 82 81 85 91 84 84 63 60 59 60 51 71 94 88 70 60 70 61 60 60 64 79
76 78 81 82 84 85 87 88 87 87 85 75 76 85 76 69 70 79 89 96 90 75 80 77 88 84 91 93 84 91 78 64 58 59 55 50 69 80 94 76 50 55 49 44 49 65 65
81 82 83 82 83 84 86 87 86 86 84 72 67 78 76 92 89 90 96 93 97 104 76 74 79 76 83 101 99 95 78 77 66 60 62 59 79 70 70 61 55 57 52 51 59 60 69
85 86 86 86 86 86 84 83 82 83 80 71 77 81 73 83 87 93 86 84 87 81 76 74 72 73 75 85 80 91 87 79 74 56 54 52 60 57 61 65 61 63 59 62 66 73 76
85 87 87 86 85 85 84 79 76 74 70 69 62 64 76 86 85 78 78 75 69 65 58 56 64 72 74 71 71 72 71 67 58 54 53 57 61 64 75 59 57 66 63 68 61 63 67
86 86 86 85 83 81 79 75 72 67 61 61 60 60 70 84 69 70 67 66 63 58 57 62 55 60 51 62 71 67 58 53 52 52 48 62 66 67 72 60 77 61 54 54 50 50 46
81 81 81 80 80 79 76 72 67 60 57 56 51 52 55 67 56 64 54 59 63 51 46 49 47 28 42 41 56 55 40 48 44 36 38 37 51 63 70 66 60 55 51 48 51 50 44
79 79 79 79 77 74 71 68 64 58 55 50 47 37 41 50 49 48 46 57 56 56 57 53 42 43 39 40 42 44 42 36 38 34 35 33 35 47 48 59 59 44 43 47 40 53 40
77 78 77 75 73 70 69 66 61 54 45 42 39 24 29 39 33 33 34 42 42 48 37 40 50 51 38 22 28 47 44 37 35 42 39 42 37 35 44 52 40 55 55 47 44 46 40
76 75 73 71 70 67 65 60 52 45 38 36 31 21 25 32 34 45 49 54 57 51 40 48 55 37 43 43 43 50 37 37 44 43 45 43 48 46 44 45 53 61 34 38 40 37 40
73 71 71 70 71 72 72 67 57 45 40 35 32 30 29 25 31 45 42 46 49 49 37 36 17 18 27 39 36 31 42 45 47 44 47 41 41 43 42 36 34 38 32 34 36 38 42
Wind_Direction
348 345 342 340 339 336 334 332 329 326 324 324 323 321 318 315 312 310 308 303 299 299 299 301 303 313 322 324 315 326 339 340 334 327 310 306 304 307 303 312 308 295 306 309 308 310 311
344 343 341 339 337 335 334 335 332 329 327 324 321 319 317 315 312 309 306 302 299 298 301 302 307 320 315 308 318 323 324 321 316 309 305 302 307 302 310 307 296 313 307 307 310 309 308
351 348 345 343 342 339 337 334 330 330 329 326 325 323 321 318 315 312 309 304 300 304 304 308 317 315 309 304 315 314 311 310 308 305 303 300 302 301 311 307 303 308 306 305 303 305 305
347 345 344 342 341 339 338 338 337 333 330 328 327 325 324 321 317 313 309 302 303 306 317 326 328 321 310 314 314 307 304 308 309 308 307 306 304 301 300 309 309 306 306 304 312 308 313
350 346 342 339 338 338 336 334 333 333 333 331 328 326 325 322 319 318 312 307 310 332 339 348 337 326 321 325 312 309 308 309 311 313 315 315 306 299 301 297 299 298 292 296 304 303 309
0 354 349 346 343 341 339 335 333 329 328 328 327 327 326 324 322 319 318 319 338 345 344 340 333 330 324 329 325 324 314 314 311 309 308 305 301 295 294 288 287 299 296 297 296 307 301
4 1 358 352 349 346 343 342 340 338 335 333 331 328 326 324 322 323 328 338 332 332 334 325 324 319 325 324 328 324 318 311 313 306 297 299 291 282 279 272 276 298 296 295 300 304 301
9 6 1 356 350 346 344 342 339 338 338 338 333 331 330 328 323 334 339 339 338 329 317 323 314 308 304 306 304 304 310 300 296 289 298 296 279 283 294 291 284 286 289 292 300 301 299
4 3 360 358 355 350 347 347 345 344 342 340 337 335 332 332 330 342 341 345 342 341 324 323 328 329 334 340 321 319 301 306 302 295 289 283 298 312 289 287 288 283 286 291 294 303 300
359 358 358 359 358 355 350 346 346 346 345 342 339 336 336 332 347 339 344 344 345 351 325 329 337 340 345 343 331 332 323 318 311 304 300 300 299 295 295 293 289 291 295 294 293 297 297
357 355 355 355 356 354 349 346 344 344 344 344 341 338 338 342 341 341 341 339 345 350 318 339 339 351 343 329 331 326 324 309 304 304 305 306 307 304 295 291 295 298 303 298 297 293 296
353 352 351 352 350 349 346 343 341 339 341 341 340 336 333 343 342 343 339 338 345 330 317 329 331 325 324 324 320 321 314 310 310 300 296 294 303 301 301 301 293 303 303 303 301 296 289
350 350 350 349 347 344 343 342 341 338 337 335 335 333 330 339 335 338 337 339 326 317 328 322 322 321 316 313 312 308 305 299 300 301 298 300 290 295 291 291 293 288 293 293 290 288 288
348 348 348 347 346 344 343 341 340 341 338 336 333 329 337 335 333 334 335 330 313 317 314 319 317 313 308 311 307 305 301 296 292 295 298 297 295 292 291 280 290 277 275 283 288 289 291
346 346 346 344 344 342 341 339 340 338 336 334 334 337 337 338 339 336 326 311 312 313 315 312 312 307 306 307 304 305 299 296 299 289 290 297 295 302 296 297 287 289 279 284 285 287 288
345 344 344 343 342 341 340 337 336 334 333 333 334 335 334 338 337 331 317 309 310 314 313 311 304 305 302 304 302 302 300 304 301 297 293 296 292 295 294 295 290 286 294 286 282 284 283
343 342 342 343 342 341 338 335 334 332 332 335 332 331 334 336 331 320 309 309 311 313 313 307 304 301 300 300 298 297 295 299 300 299 297 295 290 292 296 287 283 285 281 285 289 283 282
343 343 343 342 341 339 336 335 336 335 333 333 328 323 332 330 320 317 311 312 314 311 312 307 303 298 295 296 295 292 291 292 305 303 295 294 294 287 286 296 297 292 286 284 281 283 286
345 345 343 342 340 337 336 336 335 334 334 330 322 320 328 330 316 313 311 308 308 306 304 304 301 301 301 297 296 294 294 306 306 298 298 297 290 287 287 291 288 282 283 284 286 287 279
345 343 341 340 338 338 337 335 334 332 332 331 323 319 319 317 316 313 311 309 307 313 310 308 303 305 301 295 297 295 296 302 307 304 302 303 288 283 283 289 296 288 283 283 284 283 286
343 341 339 338 337 336 336 336 336 335 333 332 324 319 320 314 311 309 309 308 306 306 311 314 310 305 303 299 301 297 297 302 303 303 299 291 288 288 287 285 286 283 279 281 282 284 286
342 340 340 339 338 336 335 335 336 336 337 330 323 323 322 315 315 311 309 309 309 309 313 312 311 313 312 303 301 298 298 298 295 299 297 296 296 301 296 289 289 285 286 285 286 286 286
343 342 341 341 341 341 340 338 340 340 344 336 337 332 323 319 320 318 316 314 314 318 319 313 316 317 312 312 311 306 303 301 296 299 298 295 293 295 291 294 291 287 286 285 289 294 292
347 347 347 347 346 346 347 346 346 348 350 344 342 339 333 325 326 324 324 324 316 317 315 322 322 320 323 321 317 311 302 304 293 293 294 296 295 291 289 289 284 294 302 298 296 299 304
353 353 353 353 353 353 355 356 356 358 358 353 353 348 343 334 335 333 329 331 327 328 331 328 327 324 338 337 329 324 319 314 310 299 304 304 302 295 288 287 294 296 302 302 298 298 311
356 356 357 358 358 360 3 4 4 4 3 3 0 4 357 349 350 344 338 334 332 332 335 328 342 342 346 343 340 331 318 319 323 328 326 328 318 302 300 293 292 307 313 311 312 295 314
359 358 0 2 3 4 4 5 6 8 12 12 12 26 13 350 357 2 353 348 352 346 347 350 342 340 344 0 350 332 329 326 316 323 328 331 331 308 301 299 307 312 302 305 298 306 314
359 360 2 3 3 3 4 6 9 11 14 16 14 33 25 8 0 359 350 341 339 344 346 348 339 0 334 317 339 327 332 329 317 327 332 332 325 319 307 301 299 309 320 306 308 313 297
0 1 2 3 4 2 1 2 4 5 8 15 18 28 26 23 14 353 359 4 355 349 357 359 0 260 356 331 341 348 334 321 322 330 337 333 344 329 315 315 326 331 344 325 321 313 314